EJU36HA LFRS-LEMH

Flight info

Callsign EJU36HA
Flight time N/A
Altitude 37000
Route LUGEN UM616 TUPAR DCT CNA DCT SECHE DCT AGN DCT TOU DCT LOMRA DCT ROCAN DCT GEANT DCT GIR DCT SALON DCT SULID DCT DIPES N727 SARGO
Aircraft A320/M-SDE2E3FGHIRWXY/LB1

Departure

Time 2026-05-06 18:31
Airport Nantes Atlantique Airport (LFRS)

Arrival

Time N/A
Airport Menorca Airport (LEMH)
Time Latitude Longitude Altitude Speed Heading
2026-05-06 18:20 47.15647 -1.60157 90 ft 0 kts 58°
2026-05-06 18:22 47.15641 -1.60171 90 ft 4 kts 58°
2026-05-06 18:22 47.15627 -1.60205 93 ft 4 kts 58°
2026-05-06 18:23 47.15615 -1.60233 92 ft 2 kts 57°
2026-05-06 18:23 47.15598 -1.60260 90 ft 4 kts 28°
2026-05-06 18:23 47.15578 -1.60273 90 ft 3 kts 20°
2026-05-06 18:23 47.15560 -1.60284 90 ft 0 kts 25°
2026-05-06 18:25 47.15564 -1.60281 91 ft 3 kts 25°
2026-05-06 18:25 47.15600 -1.60276 92 ft 8 kts 355°
2026-05-06 18:26 47.15654 -1.60337 92 ft 13 kts 317°
2026-05-06 18:26 47.15716 -1.60423 90 ft 11 kts 316°
2026-05-06 18:26 47.15716 -1.60510 90 ft 9 kts 223°
2026-05-06 18:26 47.15640 -1.60560 89 ft 16 kts 202°
2026-05-06 18:27 47.15525 -1.60645 90 ft 21 kts 206°
2026-05-06 18:27 47.15375 -1.60759 92 ft 26 kts 208°
2026-05-06 18:27 47.15198 -1.60894 91 ft 30 kts 208°
2026-05-06 18:27 47.15019 -1.61030 90 ft 29 kts 206°
2026-05-06 18:28 47.14848 -1.61159 89 ft 27 kts 208°
2026-05-06 18:28 47.14690 -1.61283 92 ft 25 kts 208°
2026-05-06 18:28 47.14537 -1.61399 92 ft 25 kts 208°
2026-05-06 18:28 47.14386 -1.61513 89 ft 26 kts 207°
2026-05-06 18:29 47.14227 -1.61635 87 ft 25 kts 209°
2026-05-06 18:29 47.14151 -1.61765 85 ft 14 kts 251°
2026-05-06 18:29 47.14148 -1.61889 89 ft 12 kts 298°
2026-05-06 18:29 47.14206 -1.61918 87 ft 9 kts 27°
2026-05-06 18:30 47.14281 -1.61864 88 ft 26 kts 25°
2026-05-06 18:30 47.14681 -1.61555 91 ft 99 kts 28°
2026-05-06 18:30 47.15468 -1.60957 91 ft 152 kts 27°
2026-05-06 18:30 47.16478 -1.60214 512 ft 165 kts 26°
2026-05-06 18:31 47.17523 -1.59477 1120 ft 176 kts 26°
2026-05-06 18:31 47.18668 -1.58540 1514 ft 198 kts 44°
2026-05-06 18:31 47.19258 -1.56670 1864 ft 216 kts 88°
2026-05-06 18:31 47.18773 -1.54489 2265 ft 242 kts 129°
2026-05-06 18:32 47.17326 -1.53133 2960 ft 258 kts 164°
2026-05-06 18:32 47.15557 -1.52565 3884 ft 263 kts 168°
2026-05-06 18:32 47.13774 -1.52025 4800 ft 267 kts 168°
2026-05-06 18:32 47.11931 -1.51470 5711 ft 272 kts 168°
2026-05-06 18:33 47.10063 -1.50908 6596 ft 277 kts 168°
2026-05-06 18:33 47.08157 -1.50168 7442 ft 282 kts 157°
2026-05-06 18:33 47.06436 -1.48816 8255 ft 286 kts 149°
2026-05-06 18:33 47.04703 -1.47338 9110 ft 290 kts 149°
2026-05-06 18:34 47.02950 -1.45834 9954 ft 294 kts 149°
2026-05-06 18:34 47.01139 -1.44274 10413 ft 312 kts 149°
2026-05-06 18:34 46.99201 -1.42604 10752 ft 332 kts 149°
2026-05-06 18:34 46.97191 -1.40872 11404 ft 339 kts 149°
2026-05-06 18:35 46.95141 -1.39108 12151 ft 344 kts 149°
2026-05-06 18:35 46.93069 -1.37327 12897 ft 348 kts 150°
2026-05-06 18:35 46.90963 -1.35523 13629 ft 353 kts 150°
2026-05-06 18:35 46.88841 -1.33705 14274 ft 357 kts 150°
2026-05-06 18:36 46.86687 -1.31862 14927 ft 360 kts 150°
2026-05-06 18:36 46.84509 -1.29999 15573 ft 363 kts 150°
2026-05-06 18:36 46.82322 -1.28126 16219 ft 367 kts 150°
2026-05-06 18:36 46.80112 -1.26235 16867 ft 370 kts 150°
2026-05-06 18:37 46.77876 -1.24325 17515 ft 374 kts 150°
2026-05-06 18:37 46.75623 -1.22406 18155 ft 377 kts 150°
2026-05-06 18:37 46.73344 -1.20470 18704 ft 381 kts 150°
2026-05-06 18:37 46.71044 -1.18517 19253 ft 384 kts 150°
2026-05-06 18:38 46.68723 -1.16546 19795 ft 387 kts 150°
2026-05-06 18:38 46.66387 -1.14567 20335 ft 391 kts 150°
2026-05-06 18:38 46.64024 -1.12569 20859 ft 394 kts 150°
2026-05-06 18:38 46.61648 -1.10559 21381 ft 397 kts 150°
2026-05-06 18:39 46.59249 -1.08526 21880 ft 401 kts 150°
2026-05-06 18:39 46.56832 -1.06479 22386 ft 404 kts 151°
2026-05-06 18:39 46.54390 -1.04414 22891 ft 407 kts 151°
2026-05-06 18:40 46.49454 -1.00244 23793 ft 413 kts 151°
2026-05-06 18:40 46.46959 -0.98142 24234 ft 416 kts 151°
2026-05-06 18:40 46.44448 -0.96032 24648 ft 418 kts 151°
2026-05-06 18:40 46.41930 -0.93918 25061 ft 420 kts 151°
2026-05-06 18:41 46.39395 -0.91792 25468 ft 422 kts 151°
2026-05-06 18:41 46.36850 -0.89663 25882 ft 424 kts 151°
2026-05-06 18:41 46.34323 -0.87556 26270 ft 426 kts 151°
2026-05-06 18:41 46.31744 -0.85407 26670 ft 428 kts 151°
2026-05-06 18:42 46.29159 -0.83251 27052 ft 430 kts 151°
2026-05-06 18:42 46.26559 -0.81081 27430 ft 432 kts 151°
2026-05-06 18:42 46.23950 -0.78902 27808 ft 435 kts 150°
2026-05-06 18:42 46.21329 -0.76713 28182 ft 437 kts 151°
2026-05-06 18:43 46.18690 -0.74513 28552 ft 439 kts 150°
2026-05-06 18:43 46.16041 -0.72309 28907 ft 441 kts 151°
2026-05-06 18:43 46.13371 -0.70091 29263 ft 444 kts 151°
2026-05-06 18:43 46.10689 -0.67871 29612 ft 446 kts 151°
2026-05-06 18:44 46.07990 -0.65638 29947 ft 448 kts 151°
2026-05-06 18:44 46.05277 -0.63397 30235 ft 451 kts 151°
2026-05-06 18:44 46.02548 -0.61148 30498 ft 453 kts 151°
2026-05-06 18:44 45.99807 -0.58894 30755 ft 455 kts 151°
2026-05-06 18:45 45.97046 -0.56624 31004 ft 458 kts 150°
2026-05-06 18:45 45.94282 -0.54350 31257 ft 460 kts 150°
2026-05-06 18:45 45.91502 -0.52061 31575 ft 460 kts 150°
2026-05-06 18:45 45.89631 -0.50519 31846 ft 460 kts 150°
2026-05-06 18:46 45.85952 -0.47493 32328 ft 459 kts 150°
2026-05-06 18:46 45.83176 -0.45213 32686 ft 459 kts 150°
2026-05-06 18:46 45.80405 -0.42942 33046 ft 459 kts 151°
2026-05-06 18:46 45.77638 -0.40677 33419 ft 458 kts 151°
2026-05-06 18:47 45.74876 -0.38422 33773 ft 458 kts 151°
2026-05-06 18:47 45.72109 -0.36167 34115 ft 457 kts 151°
2026-05-06 18:47 45.69338 -0.33914 34419 ft 457 kts 151°
2026-05-06 18:47 45.66577 -0.31672 34715 ft 456 kts 151°
2026-05-06 18:48 45.63805 -0.29510 35014 ft 456 kts 153°
2026-05-06 18:48 45.60967 -0.27468 35276 ft 455 kts 155°
2026-05-06 18:48 45.58104 -0.25526 35533 ft 455 kts 156°
2026-05-06 18:48 45.55245 -0.23637 35791 ft 454 kts 156°
2026-05-06 18:49 45.52376 -0.21741 36043 ft 454 kts 156°
2026-05-06 18:49 45.49518 -0.19824 36288 ft 454 kts 156°
2026-05-06 18:49 45.46706 -0.17907 36509 ft 454 kts 156°
2026-05-06 18:49 45.43864 -0.15951 36738 ft 453 kts 155°
2026-05-06 18:50 45.41030 -0.13993 36927 ft 454 kts 155°
2026-05-06 18:50 45.35373 -0.10084 36956 ft 450 kts 156°
2026-05-06 18:51 45.30339 -0.06630 36971 ft 450 kts 156°
2026-05-06 18:51 45.25062 -0.03023 36951 ft 443 kts 156°
2026-05-06 18:52 45.19562 0.00719 36955 ft 435 kts 156°
2026-05-06 18:52 45.14138 0.04403 36967 ft 428 kts 156°
2026-05-06 18:53 45.08750 0.08065 36963 ft 435 kts 156°
2026-05-06 18:53 45.03220 0.11820 36962 ft 446 kts 156°
2026-05-06 18:54 44.97599 0.15616 36963 ft 449 kts 156°
2026-05-06 18:54 44.91962 0.19412 36961 ft 449 kts 156°
2026-05-06 18:55 44.86326 0.23210 36966 ft 449 kts 156°